星链-32915 (STARLINK-32915)

导读

STARLINK-32915是美国SpaceX星链星座的成员,于2025年3月3日发射入轨,属于低轨卫星,主要为全球提供高速互联网接入服务,尤其服务偏远地区与网络基础设施薄弱区域。星链星座依靠大规模低轨卫星组网,能降低通信延迟,该卫星进一步扩充了星链系统的服务覆盖范围与运力。

Basic Information
目录编号:
63152
目录名称:
STARLINK-32915
国际标识:
2025-043W
轨道中心:
EARTH
卫星名称:
星链-32915
卫星全名:
星链-32915 (STARLINK-32915)
卫星状态:
在轨 (已飞行468 天)
发射日期:
2025-03-03 UTC
国别 :
美国 (US)
星等 :
--
Orbit Information
数据来源 国际轨道数据 AOE轨道数据
星历时间 2026-06-14T03:29:03+0800
14小时前
查看轨道信息
2026-06-12T05:00:00+0800
2天前
查看轨道信息
半长轴 6861.147km 6861.165km
偏心率 0.0002477 0.0000035
轨道倾角 43.005° 43.004°
近地点辐角 266.575° 14.417°
升交点赤经 200.207° 211.152°
平近点角 93.482° 121.928°
近地点 481.31km 483.003km
远地点 484.71km 483.053km
周期 94.266分钟 94.266分钟
每日圈数 15.275931 15.275873
Detailed Information
固有亮度:
5
最大亮度:
2.5
卫星平台:
Starlink V1.0
覆盖范围:
全球
运营商:
太空探索技术公司
运营商所在国:
美国
制造商(研发单位):
太空探索技术公司
制造商所在国:
美国
使用方式:
暂无
Satellite Introduction
Starlink 计划是 SpaceX 推出的全球卫星互联网项目,通过发射低轨道卫星,为全球尤其是偏远地区提供高速、低延迟的互联网服务。自 2019 年起,Starlink 已部署数千颗卫星,旨在缩小全球数字鸿沟,推动互联网普及。该项目还为军事、航空等行业提供通信支持,带来广泛经济效益。
2D Orbit Map
3D Orbit Map
Orbit Altitude Analysis Chart
Orbit Inclination Analysis Chart
Orbit Comprehensive Analysis Chart
View Comprehensive Chart